Regional Weather Roundup
Issued by NWS San Angelo, TX

Home | Current Version | Previous Version | Text Only | Print | Product List | Glossary On
Versions: 1 2 3 4 5 6 7 8 9 10 11 12 13 14 15 16 17 18 19 20 21 22 23 24 25 26 27 28 29 30 31 32 33 34 35 36 37 38 39 40 41 42 43 44 45 46 47 48 49 50
000
ASUS44 KSJT 220510
RWRSJT
WEST CENTRAL TEXAS REGIONAL WEATHER ROUNDUP
NATIONAL WEATHER SERVICE SAN ANGELO TX
1100 PM CST TUE FEB 21 2017

NOTE: "FAIR" INDICATES FEW OR NO CLOUDS BELOW 12,000 FEET WITH NO
SIGNIFICANT WEATHER AND/OR OBSTRUCTIONS TO VISIBILITY.

TXZ049-054-064>066-071>073-076>078-098-099-113-114-127-128-139-140-
154-155-168>170-220600
...LOCATIONS ACROSS WEST CENTRAL TEXAS...

CITY           SKY/WX    TMP DP  RH WIND       PRES   REMARKS
SAN ANGELO     CLEAR     52  41  66 S5        30.01S
ABILENE        CLEAR     50  36  58 S10       30.01S
DYESS AFB      CLEAR     45  38  77 SW3       29.99S
JUNCTION       CLEAR     50  43  77 W3        30.02S
SWEETWATER     CLEAR     60  32  35 S8        30.04S
BROWNWOOD      CLEAR     46  43  87 CALM      30.01S
COLEMAN        CLEAR     50  39  65 NW3       30.01S
SONORA         CLEAR     46  39  76 CALM      30.07F
OZONA          NOT AVBL
BRADY          NOT AVBL
$$

TEXAS PANHANDLE/OKLAHOMA PANHANDLE

CITY           SKY/WX    TMP DP  RH WIND       PRES   REMARKS
AMARILLO       CLOUDY    50  28  42 S10       30.00F
BORGER         CLEAR     56  28  34 SW5       29.98S
CANADIAN       CLEAR     46  29  52 SW6       29.94F
DALHART        CLOUDY    45  23  42 W8        30.02S
DUMAS          CLOUDY    47  25  43 SW10      29.99S
GUYMON         NOT AVBL
HEREFORD       CLEAR     50  34  53 SW10      30.04R
PAMPA          CLEAR     48  30  50 S10       29.99F
PERRYTON       CLEAR     47  24  39 SW8       29.95S
$$

SOUTHERN PANHANDLE/SOUTH PLAINS/ROLLING PLAINS

CITY           SKY/WX    TMP DP  RH WIND       PRES   REMARKS
LUBBOCK        CLEAR     56  34  43 S10       30.01F
SNYDER         CLEAR     61  34  36 S8        30.02S
CHILDRESS      CLEAR     54  34  46 S8        29.96F
SEMINOLE       CLEAR     56  33  40 W10       30.07S
$$

PERMIAN BASIN

CITY           SKY/WX    TMP DP  RH WIND       PRES   REMARKS
MIDLAND        CLEAR     57  38  48 SW5       30.04S
ODESSA         CLEAR     62  30  29 W8        30.05F
WINK           CLEAR     59  32  36 W13       30.05S
$$

FAR WEST/SOUTHWEST MOUNTAINS/TRANS PECOS

CITY           SKY/WX    TMP DP  RH WIND       PRES   REMARKS
ALPINE         CLEAR     65  31  28 SW15G22   30.22F
DRYDEN           N/A     67  32  27 W12       30.03S
EL PASO        CLEAR     66  32  28 W13       30.18S
FORT STOCKTON  CLEAR     63  28  26 SW12      30.09R
GUADALUPE PASS CLEAR     54  31  41 SW18      30.23F
MARFA          CLOUDY    45  25  45 SE8       30.23S
PECOS          CLEAR     56  31  38 SW8       30.07S
$$

DALLAS/FORT WORTH METROPLEX

CITY           SKY/WX    TMP DP  RH WIND       PRES   REMARKS
DFW AIRPORT    CLEAR     62  40  44 NW13      29.94S
FTW MEACHAM    CLEAR     58  39  49 NW3       29.96S
DAL-EXECUTIVE  CLEAR     56  42  59 NW7       29.95S
GRAND PRAIRIE  CLEAR     63  37  37 W5        29.98R
ADDISON        CLEAR     57  43  59 NW6       29.97S
MESQUITE       CLEAR     59  46  62 W5        29.95S
LANCASTER      CLEAR     51  43  73 NW3       29.96F
$$

NORTH CENTRAL TEXAS

CITY           SKY/WX    TMP DP  RH WIND       PRES   REMARKS
SHRMAN/DENISON CLEAR     53  44  71 CALM      29.97S
GAINESVILLE    CLEAR     50  38  64 CALM      29.98S
BRIDGEPORT     CLEAR     51  40  66 SW6       29.99F
DENTON         CLEAR     51  43  74 NW3       29.96S
WAXAHACHIE     CLEAR     56  42  59 W7        29.98R
GRANBURY       CLEAR     50  41  71 CALM      29.99S
$$

WESTERN NORTH TEXAS

CITY           SKY/WX    TMP DP  RH WIND       PRES   REMARKS
WICHITA FALLS  CLEAR     55  41  59 S6        29.95F
VERNON         CLEAR     53  40  61 SW6       29.97S
BRECKENRIDGE   CLEAR     50  40  68 SE9       29.98F
COMANCHE       CLEAR     62  35  36 CALM      30.00F
$$

CENTRAL AND SOUTH CENTRAL TEXAS

CITY           SKY/WX    TMP DP  RH WIND       PRES   REMARKS
AUSTIN/BERGSTM CLEAR     55  43  63 CALM      29.97F
WACO           CLEAR     47  43  86 W7        29.97S
HILLSBORO      CLEAR     54  44  68 N6        29.96F
TEMPLE         NOT AVBL
KILLEEN-GRAY   CLEAR     59  37  42 N7        29.98S
FORT HOOD      CLEAR     58  38  46 W5        29.95F
GEORGETOWN     CLEAR     54  39  58 N6        29.98F
LAGO VISTA     FAIR      66  33  29 N6        30.00S
SAN MARCOS     CLEAR     54  43  66 E3        29.98S
NEW BRAUNFELS  CLEAR     54  41  61 NW7       29.96F
RANDOLPH AFB   CLEAR     55  42  63 NW7       29.97F
SAN ANTONIO    CLEAR     56  40  55 W8        29.99S
STINSON        CLEAR     59  42  53 W5        29.97S
PLEASANTON     NOT AVBL
LA GRANGE      CLEAR     53  48  83 CALM      29.95S
GIDDINGS       CLEAR     52  46  79 CALM      29.97S
$$

EAST TEXAS

CITY           SKY/WX    TMP DP  RH WIND       PRES   REMARKS
PARIS          CLEAR     54  48  82 W5        29.93S
CLARKSVILLE    NOT AVBL
TYLER          CLEAR     55  51  86 NW5       29.93S
LONGVIEW       CLEAR     56  53  90 CALM      29.90S
PALESTINE      CLEAR     53  52  96 CALM      29.95S
NACOGDOCHES    CLEAR     52  50  93 CALM      29.90S
$$

TEXAS HILL COUNTRY AND EDWARDS PLATEAU

CITY           SKY/WX    TMP DP  RH WIND       PRES   REMARKS
LLANO          CLEAR     48  43  81 CALM      30.03S
HORSESHOE BAY  FAIR      48  43  82 S3        30.00S
KERRVILLE      CLEAR     49  42  79 CALM      30.02F
FREDERICKSBRG  CLEAR     48  39  71 NW3       30.02S
ROCKSPRINGS    CLEAR     63  34  34 CALM      30.06F
HONDO          CLEAR     59  44  57 NW6       30.00S
UVALDE         CLEAR     55  43  62 CALM      30.00S
DEL RIO        CLEAR     60  41  49 NW5       29.99R
$$

SOUTHEAST TEXAS

CITY           SKY/WX    TMP DP  RH WIND       PRES   REMARKS
COLLEGE STN    CLEAR     56  48  74 NW5       29.95S
CALDWELL       NOT AVBL
CROCKETT         N/A    N/A N/A N/A MISG        N/A
BRENHAM        CLEAR     53  49  87 CALM      29.96S
HUNTSVILLE     CLEAR     56  49  77 CALM      29.94S
CONROE         CLEAR     51  49  92 CALM      29.94R
HOUSTON BUSH   CLEAR     60  50  69 W6        29.93S
HOUSTON HOBBY  CLEAR     60  50  69 W3        29.93R
PERLAND        CLEAR     61  51  70 W5        29.94S
WHARTON        CLEAR     55  51  83 CALM      29.96S
$$

THE UPPER TEXAS COAST

CITY           SKY/WX    TMP DP  RH WIND       PRES   REMARKS
ORANGE         CLEAR     58  56  91 NW3       29.91S
PORT ARTHUR    CLEAR     60  52  74 NW7       29.89F
GALVESTON      CLEAR     67  53  61 NW8       29.93S
ANGLETON       CLEAR     55  53  93 CALM      29.94S
BAY CITY       CLEAR     56  52  86 CALM      29.94F
$$

TEXAS COASTAL BEND, RIO GRANDE PLAINS DEEP SOUTH TEXAS

CITY           SKY/WX    TMP DP  RH WIND       PRES   REMARKS
VICTORIA       CLEAR     58  46  64 W3        29.96S
BEEVILLE       FAIR      60  49  68 CALM      29.97F
ROCKPORT       CLEAR     58  48  69 SW3       29.96S
PORT ARANSAS   CLEAR     65  57  77 CALM      29.96S
PORT LAVACA    CLEAR     58  52  81 W3        29.95F
CORPUS CHRISTI CLEAR     60  53  77 S3        29.97S
KINGSVILLE NAS CLEAR     58  48  69 S6        29.97R
COTULLA        CLEAR     66  39  37 N6        29.98S
LAREDO         CLEAR     65  43  44 NE5       30.00R
BROWNSVILLE    CLEAR     60  57  89 CALM      29.98S
PORT ISABEL    CLEAR     59  57  93 S6        29.97S
HEBBRONVILLE   CLEAR     62  33  33 CALM      30.00S
MCALLEN        CLEAR     63  47  55 CALM      29.98S
WESLACO        CLEAR     61  48  63 CALM      29.96F
FALFURRIAS     CLEAR     63  41  44 W3        29.97S
EDINBURG       CLEAR     61  44  53 CALM      29.97F
$$




USA.gov is the U.S. government's official web portal to all federal, state and local government web resources and services.